This is the latest recevied weather packets stored in our database for station/object KC3UTO. If no packets are shown the sender has not sent any weather packets the latest 1 day(s).
| Time | Temp. | Humidity | Pressure | Rain* | Wind** | Luminosity | Snow |
|---|---|---|---|---|---|---|---|
| 1778045011 | 18.89° C | 60% | 1009.1 hPa | 0 mm | 0.45 m/s, 17° | 0 W/m² | - |
| 1778044708 | 18.89° C | 59% | 1009.2 hPa | 0 mm | 0.45 m/s, 20° | 0 W/m² | - |
| 1778044404 | 18.89° C | 60% | 1009.2 hPa | 0 mm | 0 m/s | 0 W/m² | - |
| 1778044102 | 18.89° C | 60% | 1009.4 hPa | 0 mm | 0.45 m/s, 63° | 0 W/m² | - |
| 1778043799 | 18.89° C | 61% | 1009.4 hPa | 0 mm | 0.89 m/s, 61° | 0 W/m² | - |
| 1778043496 | 18.89° C | 60% | 1009.4 hPa | 0 mm | 0.89 m/s, 62° | 0 W/m² | - |
| 1778043193 | 18.89° C | 60% | 1009.3 hPa | 0 mm | 0.45 m/s, 25° | 0 W/m² | - |
| 1778042890 | 18.89° C | 59% | 1009.3 hPa | 0 mm | 0.89 m/s, 35° | 0 W/m² | - |
| 1778042587 | 18.89° C | 59% | 1009.5 hPa | 0 mm | 0.45 m/s, 29° | 0 W/m² | - |
| 1778042284 | 18.89° C | 59% | 1009.3 hPa | 0 mm | 0.89 m/s, 49° | 0 W/m² | - |
| 1778041981 | 18.89° C | 59% | 1009.2 hPa | 0 mm | 0 m/s | 0 W/m² | - |
| 1778041680 | 18.89° C | 58% | 1009.4 hPa | 0 mm | 0.45 m/s, 37° | 0 W/m² | - |
| 1778041379 | 18.89° C | 57% | 1009.5 hPa | 0 mm | 0 m/s | 0 W/m² | - |
| 1778041077 | 19.44° C | 57% | 1009.5 hPa | 0 mm | 0.45 m/s, 41° | 0 W/m² | - |
| 1778040773 | 19.44° C | 56% | 1009.2 hPa | 0 mm | 0.89 m/s, 48° | 0 W/m² | - |
| 1778040471 | 19.44° C | 55% | 1009.1 hPa | 0 mm | 0.45 m/s, 17° | 0 W/m² | - |
| 1778040168 | 19.44° C | 55% | 1009.2 hPa | 0 mm | 0.89 m/s, 58° | 0 W/m² | - |
| 1778039865 | 20° C | 54% | 1009.4 hPa | 0 mm | 0.45 m/s, 39° | 0 W/m² | - |
| 1778039561 | 20° C | 53% | 1009.2 hPa | 0 mm | 0.45 m/s, 16° | 0 W/m² | - |
| 1778039258 | 20° C | 53% | 1009 hPa | 0 mm | 0 m/s | 0 W/m² | - |
| 1778038956 | 20° C | 53% | 1009.3 hPa | 0 mm | 0.45 m/s, 9° | 0 W/m² | - |
| 1778038653 | 20° C | 52% | 1009.2 hPa | 0 mm | 1.34 m/s, 47° | 0 W/m² | - |
| 1778038350 | 20° C | 52% | 1009.1 hPa | 0 mm | 0.89 m/s, 55° | 0 W/m² | - |
| 1778038047 | 20.56° C | 51% | 1009.1 hPa | 0 mm | 0 m/s | 0 W/m² | - |
| 1778037743 | 20.56° C | 51% | 1008.9 hPa | 0 mm | 0.89 m/s, 50° | 0 W/m² | - |
* Rain latest hour (hover to see other rain measurements)
** Current wind speed in m/s (hover to see current wind gust speed)